Regional Weather Roundup
Issued by NWS

Home | Current Version | Previous Version | Graphics & Text | Print | Product List | Glossary On
Versions: 1 2 3 4 5 6 7 8 9 10 11 12 13 14 15 16 17 18 19 20 21 22 23 24 25 26 27 28 29 30 31 32 33 34 35 36 37 38 39 40 41 42 43 44 45 46 47 48 49 50
000
ASUS43 KLSX 042257
RWRMO

WEATHER SUMMARY FOR MISSOURI
NATIONAL WEATHER SERVICE SPRINGFIELD MO
600 PM CDT FRI SEP 04 2015

NOTE: "FAIR" INDICATES FEW OR NO CLOUDS BELOW 12,000 FEET WITH NO
       SIGNIFICANT WEATHER AND/OR OBSTRUCTIONS TO VISIBILITY.
       CURRENT SKY AND/OR WEATHER CONDITIONS ARE NOT AVAILABLE FOR
       CHILLICOTHE AND FARMINGTON.

MOZ001>031-035>038-043-044-053-054-050000-
...NORTHERN AND WESTERN MISSOURI...

CITY           SKY/WX    TMP DP  RH WIND       PRES   REMARKS
KANSAS CTY INT MOSUNNY   90  68  48 S12       29.94S HX  94
LEE`S SUMMIT   SUNNY     89  66  46 S10       29.96S HX  91
ST JOSEPH      SUNNY     88  68  51 S12       29.91S HX  91
CHILLICOTHE      N/A     91  69  48 S9        29.95S HX  96

$$
MOZ066>068-077>081-088>096-101>105-050000-
...SOUTHWEST MISSOURI...

CITY           SKY/WX    TMP DP  RH WIND       PRES   REMARKS
SPRINGFIELD    SUNNY     88  67  49 S7        29.99F HX  91
JOPLIN         SUNNY     88  70  55 S9        29.97S HX  93

$$
MOZ032>034-039>042-045>050-055>058-069>072-050000-
...CENTRAL MISSOURI...

CITY           SKY/WX    TMP DP  RH WIND       PRES   REMARKS
COLUMBIA       NOT AVBL
JEFFERSON CITY MOSUNNY   90  70  51 E8        29.96S HX  95
ROLLA          SUNNY     88  67  49 S7        30.00S HX  91
SEDALIA        SUNNY     91  67  44 S9        29.98S HX  94
WARRENSBURG    MOSUNNY   90  64  43 S8        29.95F HX  91

$$
MOZ051-052-059>065-050000-
...EAST CENTRAL MISSOURI...

CITY           SKY/WX    TMP DP  RH WIND       PRES   REMARKS
ST LOUIS INTL  MOSUNNY   92  67  43 SW6       29.99S HX  95

$$
MOZ072>076-082>087-097>100-106>115-050000-
...SOUTH CENTRAL AND SOUTHEAST MISSOURI...

CITY           SKY/WX    TMP DP  RH WIND       PRES   REMARKS
CAPE GIRARDEAU SUNNY     90  69  50 E3        29.98F HX  94
POPLAR BLUFF   MOSUNNY   89  70  53 SW3       29.98S HX  94
WEST PLAINS    MOSUNNY   87  67  51 SE5       30.03F HX  90

$$



USA.gov is the U.S. government's official web portal to all federal, state and local government web resources and services.